W4CPD Weather Reports


Display with metric or nautical units.
time (UTC)temp
F
wind
direction
speed
MPH
gust
MPH
rain 1hr
in
rain 24hr
in
rain mn
in
humidity
%
barometer
mb
20210917163017 80 78 0.0 4.0 0.00 0.92 0.92 94 1019.3
20210917162521 80 0 0.0 4.0 0.00 0.92 0.92 95 1019.3
20210917162015 80 0 0.0 4.0 0.00 0.92 0.92 96 1019.4
20210917161527 80 101 0.0 4.0 0.00 0.92 0.92 96 1019.2
20210917161016 79 0 1.0 6.0 0.00 0.92 0.92 96 1019.2
20210917160518 79 0 0.0 6.0 0.00 0.92 0.92 96 1019.2
20210917160030 79 138 2.0 5.0 0.01 0.92 0.92 96 1019.1
20210917155515 79 118 0.0 4.0 0.01 1.00 0.92 97 1019.0
20210917155016 78 136 1.0 7.0 0.01 1.00 0.92 95 1018.9
20210917154521 78 0 2.0 7.0 0.01 1.00 0.92 96 1018.7
20210917154013 78 118 1.0 5.0 0.01 1.00 0.92 97 1018.6
20210917153533 78 0 0.0 2.0 0.01 1.00 0.92 98 1018.4
20210917153032 78 0 0.0 2.0 0.01 1.00 0.92 99 1018.3
20210917152514 78 0 0.0 2.0 0.01 1.00 0.92 98 1018.4
20210917152039 77 0 0.0 2.0 0.01 1.00 0.92 98 1018.2
20210917151523 77 0 0.0 2.0 0.01 1.00 0.92 98 1018.2
20210917151014 77 0 0.0 3.0 0.01 1.00 0.92 98 1018.2
20210917150513 77 0 1.0 4.0 0.00 0.99 0.91 97 1018.1
20210917150048 76 0 0.0 5.0 0.00 0.99 0.91 97 1018.2
20210917145514 76 0 0.0 5.0 0.00 1.04 0.91 97 1018.2
20210917145017 77 170 1.0 4.0 0.00 1.04 0.91 97 1018.4
20210917144541 76 0 0.0 2.0 0.00 1.04 0.91 98 1018.4
20210917144017 76 0 0.0 7.0 0.00 1.04 0.91 97 1018.5
20210917143521 76 0 0.0 7.0 0.00 1.04 0.91 98 1018.6
20210917143023 76 133 2.0 7.0 0.00 1.04 0.91 98 1018.6
20210917142514 76 162 2.0 5.0 0.00 1.04 0.91 98 1018.6
20210917142015 76 0 0.0 4.0 0.00 1.04 0.91 99 1018.6
20210917141548 76 0 1.0 5.0 0.00 1.04 0.91 99 1018.6
20210917141015 76 0 1.0 5.0 0.00 1.04 0.91 99 1018.5
20210917140520 76 0 1.0 4.0 0.00 1.04 0.91 99 1018.4
20210917140021 75 121 1.0 4.0 0.00 1.04 0.91 99 1018.5
20210917135514 75 128 1.0 4.0 0.00 1.77 0.91 99 1018.3
20210917135017 75 74 0.0 4.0 0.00 1.77 0.91 99 1018.2
20210917134518 75 128 0.0 4.0 0.00 1.77 0.91 99 1018.2
20210917134014 75 0 0.0 4.0 0.00 1.77 0.91 99 1018.4
20210917133541 75 0 0.0 4.0 0.00 1.77 0.91 98 1018.3
20210917133017 74 0 1.0 4.0 0.00 1.77 0.91 98 1018.3
20210917132517 74 0 1.0 4.0 0.01 1.77 0.91 99 1018.2
20210917132014 74 0 0.0 3.0 0.03 1.77 0.91 99 1018.1
20210917131527 74 0 0.0 2.0 0.08 1.77 0.91 99 1017.9
20210917131015 74 0 0.0 1.0 0.18 1.77 0.91 99 1017.8
20210917130515 74 0 0.0 0.0 0.29 1.77 0.91 98 1017.8
20210917130016 74 0 0.0 1.0 0.50 1.77 0.91 98 1017.9
20210917125518 74 0 0.0 1.0 0.63 1.77 0.91 98 1017.8
20210917125019 74 0 0.0 3.0 0.72 1.77 0.91 98 1017.7
20210917124514 74 0 0.0 3.0 0.76 1.77 0.91 98 1017.7
20210917124020 74 22 1.0 3.0 0.78 1.77 0.91 98 1017.7
20210917123518 74 0 0.0 4.0 0.82 1.77 0.91 98 1017.6
20210917123024 74 0 0.0 7.0 0.87 1.77 0.91 98 1017.5
20210917122514 74 0 1.0 7.0 0.90 1.76 0.90 98 1017.4
20210917122016 74 270 2.0 10.0 0.87 1.73 0.87 98 1017.4
20210917121541 74 198 2.0 10.0 0.82 1.68 0.82 98 1017.5
20210917121013 74 251 2.0 11.0 0.72 1.58 0.72 98 1017.8
20210917120513 74 306 4.0 11.0 0.58 1.45 0.58 98 1017.8
20210917120019 74 263 3.0 13.0 0.39 1.25 0.39 98 1018.0
20210917115536 74 234 3.0 13.0 0.26 1.17 0.26 98 1017.8
20210917115013 74 338 0.0 3.0 0.18 1.10 0.18 98 1017.5
20210917114521 74 285 0.0 4.0 0.14 1.05 0.14 98 1017.3
20210917114015 75 0 0.0 6.0 0.12 1.04 0.12 98 1017.1
20210917113514 75 200 2.0 7.0 0.08 1.00 0.08 99 1017.2
20210917113013 74 205 2.0 7.0 0.03 0.95 0.03 98 1017.2
20210917112518 74 0 1.0 5.0 0.00 0.92 0.00 98 1017.3
20210917112014 74 0 0.0 2.0 0.00 0.92 0.00 98 1017.1
20210917111517 74 0 0.0 3.0 0.00 0.92 0.00 98 1017.0
20210917111014 74 47 0.0 3.0 0.00 0.92 0.00 98 1017.0
20210917110523 74 0 0.0 4.0 0.00 0.92 0.00 98 1016.9
20210917110015 74 0 0.0 4.0 0.00 0.92 0.00 98 1016.6
20210917105517 74 65 1.0 3.0 0.00 0.92 0.00 98 1016.6
20210917105014 74 0 0.0 0.0 0.00 0.92 0.00 98 1016.7
20210917104552 74 0 0.0 3.0 0.00 0.92 0.00 98 1016.5
20210917104020 74 0 0.0 3.0 0.00 0.92 0.00 98 1016.5
20210917103528 74 0 0.0 3.0 0.00 0.92 0.00 98 1016.3
20210917103038 74 0 0.0 2.0 0.00 0.92 0.00 98 1016.1
20210917102523 74 118 0.0 2.0 0.00 0.92 0.00 98 1015.9
20210917102014 74 118 0.0 2.0 0.00 0.92 0.00 98 1015.9
20210917101533 74 0 0.0 2.0 0.00 0.92 0.00 98 1016.0
20210917101014 74 118 0.0 2.0 0.00 0.92 0.00 98 1015.9
20210917100518 74 0 0.0 2.0 0.00 0.92 0.00 98 1015.9
20210917100017 74 118 0.0 2.0 0.00 0.92 0.00 98 1015.8
20210917095516 74 0 0.0 2.0 0.00 0.92 0.00 98 1015.9
20210917095014 74 0 0.0 1.0 0.00 0.92 0.00 98 1015.8
20210917094528 74 0 0.0 1.0 0.00 0.92 0.00 98 1015.8
20210917094019 73 0 0.0 1.0 0.00 0.92 0.00 98 1015.8
20210917093519 73 0 0.0 1.0 0.00 0.92 0.00 98 1015.7
20210917093014 73 0 0.0 1.0 0.00 0.92 0.00 98 1015.6
20210917092514 73 0 0.0 1.0 0.00 0.92 0.00 98 1015.6
20210917092019 73 0 0.0 2.0 0.00 0.92 0.00 98 1015.6
20210917091518 73 0 0.0 2.0 0.00 0.92 0.00 98 1015.6
20210917091018 73 0 0.0 1.0 0.00 0.92 0.00 98 1015.6
20210917090530 73 0 0.0 1.0 0.00 0.92 0.00 98 1015.8
20210917090031 73 0 0.0 1.0 0.00 0.92 0.00 97 1015.6
20210917085531 73 0 0.0 2.0 0.00 0.92 0.00 97 1015.5
20210917085019 73 0 0.0 2.0 0.00 0.92 0.00 98 1015.4
20210917084538 73 0 0.0 1.0 0.00 0.92 0.00 97 1015.2
20210917084013 73 0 0.0 1.0 0.00 0.92 0.00 97 1015.2
20210917083519 73 0 0.0 0.0 0.00 0.92 0.00 97 1015.2
20210917083015 73 0 0.0 0.0 0.00 0.92 0.00 97 1015.2
20210917082534 73 0 0.0 0.0 0.00 0.92 0.00 97 1015.3
20210917082021 73 0 0.0 1.0 0.00 0.92 0.00 97 1015.5
20210917081532 73 0 0.0 1.0 0.00 0.92 0.00 97 1015.5
20210917081015 73 0 0.0 1.0 0.00 0.92 0.00 97 1015.3
20210917080527 73 0 0.0 1.0 0.00 0.92 0.00 97 1015.3
20210917080017 74 0 0.0 1.0 0.00 0.92 0.00 97 1015.2
20210917075514 74 118 0.0 2.0 0.00 0.93 0.00 97 1015.0
20210917075016 74 0 0.0 2.0 0.00 0.93 0.00 97 1015.0
20210917074546 74 0 0.0 2.0 0.00 0.93 0.00 97 1015.0
20210917074015 74 0 0.0 2.0 0.00 0.93 0.00 97 1015.1
20210917073514 74 118 0.0 2.0 0.00 0.93 0.00 97 1015.1
20210917073018 74 0 0.0 2.0 0.00 0.93 0.00 97 1015.2
20210917072518 74 0 0.0 1.0 0.00 0.93 0.00 97 1015.2
20210917072015 74 0 0.0 1.0 0.00 0.93 0.00 97 1015.2
20210917071517 74 0 0.0 1.0 0.00 0.93 0.00 97 1015.3
20210917071015 74 0 0.0 2.0 0.00 0.93 0.00 97 1015.3
20210917070515 74 0 0.0 2.0 0.00 0.93 0.00 98 1015.4
20210917070033 74 0 0.0 1.0 0.00 0.93 0.00 98 1015.3
20210917065528 74 0 0.0 1.0 0.00 0.98 0.00 98 1015.6
20210917065015 74 0 0.0 1.0 0.00 0.98 0.00 98 1015.6
20210917064546 74 0 0.0 0.0 0.00 0.98 0.00 97 1015.4
20210917064015 74 0 0.0 1.0 0.00 0.98 0.00 97 1015.4
20210917063515 74 0 0.0 2.0 0.00 0.98 0.00 97 1015.3
20210917063031 74 0 0.0 2.0 0.00 0.98 0.00 97 1015.4
20210917062514 74 0 0.0 1.0 0.00 0.98 0.00 97 1015.4
20210917062017 74 0 0.0 1.0 0.00 0.98 0.00 97 1015.4
20210917061538 74 0 0.0 2.0 0.00 0.98 0.00 97 1015.5
20210917061017 74 0 0.0 2.0 0.00 0.98 0.00 97 1015.4
20210917060517 74 0 0.0 2.0 0.00 0.98 0.00 97 1015.5
20210917060017 74 0 0.0 3.0 0.00 0.98 0.00 97 1015.6
20210917055515 74 0 0.0 3.0 0.00 0.99 0.00 97 1015.6
20210917055015 74 0 0.0 1.0 0.00 0.99 0.00 97 1015.6
20210917054529 74 0 0.0 3.0 0.00 0.99 0.00 97 1015.7
20210917054028 74 0 0.0 3.0 0.00 0.99 0.00 97 1015.7
20210917053520 74 0 0.0 6.0 0.00 0.99 0.00 97 1015.7
20210917053021 74 0 0.0 6.0 0.00 0.99 0.00 97 1015.7
20210917052521 74 0 0.0 3.0 0.00 0.99 0.00 97 1015.9
20210917052017 74 104 0.0 3.0 0.00 0.99 0.00 97 1016.0
20210917051547 74 0 0.0 6.0 0.00 0.99 0.00 97 1015.9
20210917051017 74 114 1.0 6.0 0.00 0.99 0.00 97 1015.8
20210917050530 74 144 0.0 3.0 0.00 0.99 0.00 97 1015.8
20210917050101 74 142 0.0 2.0 0.00 0.99 0.00 97 1015.7
20210917045513 74 0 0.0 3.0 0.00 0.99 0.99 97 1015.6
20210917045014 74 0 0.0 3.0 0.00 0.99 0.99 97 1015.6
20210917044520 74 129 0.0 3.0 0.00 0.99 0.99 97 1015.6
20210917044016 74 0 0.0 3.0 0.00 0.99 0.99 96 1015.6
20210917043516 74 0 0.0 1.0 0.00 0.99 0.99 97 1015.6
20210917043038 75 121 0.0 4.0 0.00 0.99 0.99 97 1015.5
20210917042525 75 0 0.0 4.0 0.00 0.99 0.99 96 1015.4
20210917042013 75 0 0.0 3.0 0.00 0.99 0.99 97 1015.5
20210917041538 75 0 0.0 3.0 0.00 0.99 0.99 96 1015.5
20210917041014 75 117 0.0 3.0 0.00 0.99 0.99 96 1015.5
20210917040520 75 0 0.0 3.0 0.00 0.99 0.99 96 1015.5
20210917040022 75 117 0.0 3.0 0.00 0.99 0.99 96 1015.4
20210917035514 75 117 0.0 5.0 0.00 0.99 0.99 96 1015.5
20210917035015 75 0 0.0 5.0 0.00 0.99 0.99 96 1015.5
20210917034523 75 0 0.0 6.0 0.00 0.99 0.99 96 1015.5
20210917034025 75 0 0.0 6.0 0.00 0.99 0.99 96 1015.5
20210917033518 75 0 0.0 4.0 0.00 0.99 0.99 96 1015.5
20210917033020 75 0 0.0 4.0 0.00 0.99 0.99 96 1015.4
20210917032515 75 137 1.0 4.0 0.00 0.99 0.99 96 1015.6
20210917032021 75 0 0.0 3.0 0.00 0.99 0.99 96 1015.6
20210917031516 75 0 0.0 3.0 0.00 0.99 0.99 96 1015.6
20210917031015 75 0 0.0 2.0 0.00 0.99 0.99 96 1015.7
20210917030516 75 120 0.0 2.0 0.00 0.99 0.99 96 1015.6
20210917030047 75 0 0.0 2.0 0.00 0.99 0.99 96 1015.7
20210917025514 76 0 0.0 1.0 0.00 0.99 0.99 95 1015.8
20210917025013 76 0 0.0 0.0 0.00 0.99 0.99 95 1015.7
20210917024535 76 0 0.0 1.0 0.00 0.99 0.99 95 1015.7
20210917024018 76 0 0.0 1.0 0.00 0.99 0.99 96 1015.7
20210917023533 76 0 0.0 0.0 0.00 0.99 0.99 95 1015.6
20210917023045 76 0 0.0 1.0 0.00 0.99 0.99 95 1015.6
20210917022517 76 0 0.0 1.0 0.00 0.99 0.99 95 1015.6
20210917022013 76 0 0.0 2.0 0.00 0.99 0.99 95 1015.7
20210917021519 76 120 0.0 2.0 0.00 0.99 0.99 95 1015.7
20210917021017 77 0 0.0 0.0 0.00 0.99 0.99 95 1015.8
20210917020513 77 0 0.0 0.0 0.00 0.99 0.99 95 1015.9
20210917020033 77 0 0.0 1.0 0.00 0.99 0.99 95 1015.8
20210917015513 77 0 0.0 1.0 0.00 1.00 0.99 95 1015.8
20210917015015 77 0 0.0 0.0 0.00 1.00 0.99 95 1015.8
20210917014545 77 0 0.0 0.0 0.00 1.00 0.99 95 1015.9
20210917014013 77 0 0.0 1.0 0.00 1.00 0.99 95 1015.9
20210917013536 77 0 0.0 1.0 0.00 1.00 0.99 95 1015.9
20210917013029 77 0 0.0 1.0 0.00 1.00 0.99 95 1015.6
20210917012513 77 0 0.0 2.0 0.00 1.00 0.99 95 1015.6
20210917012023 77 0 0.0 2.0 0.00 1.00 0.99 95 1015.5
20210917011521 77 120 0.0 1.0 0.00 1.00 0.99 94 1015.4
20210917011020 77 0 0.0 1.0 0.00 1.00 0.99 94 1015.3
20210917010513 77 0 0.0 1.0 0.00 1.00 0.99 94 1015.2
20210917010021 77 0 0.0 1.0 0.00 1.00 0.99 94 1015.1
20210917005517 77 0 0.0 2.0 0.00 1.01 0.99 94 1015.0
20210917005016 77 0 0.0 3.0 0.00 1.01 0.99 94 1015.2
20210917004528 77 120 0.0 3.0 0.00 1.01 0.99 94 1015.0
20210917004017 77 0 0.0 4.0 0.00 1.01 0.99 93 1014.9
20210917003513 78 0 1.0 4.0 0.00 1.01 0.99 93 1014.8
20210917003022 78 151 0.0 3.0 0.00 1.01 0.99 93 1014.6
20210917002516 78 151 0.0 4.0 0.00 1.01 0.99 93 1014.5
20210917002012 78 0 0.0 4.0 0.00 1.01 0.99 93 1014.5
20210917001521 78 151 0.0 4.0 0.00 1.01 0.99 93 1014.5
20210917001020 78 136 0.0 3.0 0.00 1.01 0.99 93 1014.4
20210917000520 78 0 0.0 3.0 0.00 1.01 0.99 93 1014.4
20210917000017 78 0 0.0 3.0 0.00 1.01 0.99 92 1014.4
20210916235516 78 0 0.0 4.0 0.00 1.01 0.99 93 1014.3
20210916235014 78 141 0.0 4.0 0.00 1.01 0.99 92 1014.1
20210916234530 79 133 1.0 5.0 0.00 1.01 0.99 92 1014.0
20210916234017 79 0 1.0 5.0 0.00 1.01 0.99 92 1013.9
20210916233517 79 0 0.0 5.0 0.00 1.01 0.99 92 1014.0
20210916233023 79 163 1.0 5.0 0.00 1.01 0.99 91 1013.9
20210916232513 79 132 0.0 7.0 0.00 1.01 0.99 90 1014.1
20210916232013 80 132 0.0 7.0 0.00 1.01 0.99 90 1014.0
20210916231527 80 168 1.0 9.0 0.00 1.01 0.99 90 1014.0
20210916231013 80 128 3.0 9.0 0.00 1.01 0.99 89 1014.1
20210916230517 80 145 4.0 8.0 0.00 1.01 0.99 89 1013.9
20210916230018 80 163 3.0 7.0 0.00 1.01 0.99 90 1014.0
20210916225515 81 176 2.0 6.0 0.00 1.03 0.99 90 1013.9
20210916225014 81 181 1.0 7.0 0.00 1.03 0.99 89 1013.8
20210916224523 81 162 2.0 7.0 0.00 1.03 0.99 89 1013.6
20210916224013 81 213 2.0 6.0 0.00 1.03 0.99 88 1013.7
20210916223514 81 147 2.0 5.0 0.00 1.03 0.99 88 1013.6
20210916223047 81 134 1.0 7.0 0.00 1.03 0.99 88 1013.6
20210916222522 82 176 2.0 7.0 0.00 1.03 0.99 86 1013.6
20210916222013 82 190 2.0 9.0 0.00 1.03 0.99 87 1013.5
20210916221548 82 178 3.0 10.0 0.00 1.03 0.99 86 1013.5
20210916221018 82 165 5.0 10.0 0.00 1.03 0.99 86 1013.5
20210916220528 82 200 4.0 10.0 0.00 1.03 0.99 86 1013.3
20210916220034 82 165 3.0 10.0 0.00 1.03 0.99 86 1013.2
20210916215512 82 183 2.0 13.0 0.00 1.16 0.99 88 1013.3
20210916215021 81 235 5.0 13.0 0.00 1.16 0.99 86 1013.5
20210916214520 81 188 4.0 9.0 0.00 1.16 0.99 86 1013.4
20210916214013 81 174 5.0 9.0 0.00 1.16 0.99 86 1013.4
20210916213512 81 159 3.0 9.0 0.00 1.16 0.99 87 1013.5
20210916213046 81 178 3.0 9.0 0.00 1.16 0.99 86 1013.6
20210916212514 81 184 2.0 8.0 0.00 1.16 0.99 87 1013.5
20210916212014 81 159 4.0 8.0 0.00 1.16 0.99 87 1013.5
20210916211533 80 164 1.0 6.0 0.00 1.16 0.99 88 1013.3
20210916211017 80 151 2.0 6.0 0.00 1.16 0.99 88 1013.2
20210916210518 80 178 2.0 6.0 0.00 1.16 0.99 89 1013.2
20210916210047 80 133 0.0 6.0 0.00 1.16 0.99 90 1013.2
20210916205513 80 178 0.0 3.0 0.00 2.20 0.99 89 1013.2
20210916205020 80 178 0.0 2.0 0.00 2.20 0.99 91 1013.1
20210916204608 79 0 0.0 3.0 0.00 2.20 0.99 90 1013.1
20210916204016 79 0 0.0 4.0 0.00 2.20 0.99 90 1013.0
20210916203536 79 130 0.0 5.0 0.00 2.20 0.99 88 1012.8
20210916203040 80 0 0.0 7.0 0.00 2.20 0.99 87 1012.9
20210916202515 80 0 0.0 12.0 0.00 2.20 0.99 87 1012.8
20210916202018 80 194 2.0 13.0 0.00 2.20 0.99 86 1012.8
20210916201544 81 145 5.0 16.0 0.00 2.20 0.99 85 1012.9
20210916201016 81 142 4.0 16.0 0.00 2.20 0.99 86 1013.0
20210916200517 82 167 6.0 12.0 0.00 2.20 0.99 85 1013.2
20210916200018 83 208 3.0 10.0 0.00 2.20 0.99 86 1013.2
20210916195514 82 194 4.0 11.0 0.00 2.47 0.99 85 1013.3
20210916195016 82 155 4.0 11.0 0.00 2.47 0.99 84 1013.2
20210916194535 83 163 4.0 10.0 0.00 2.47 0.99 84 1013.4
20210916194018 84 200 4.0 10.0 0.00 2.47 0.99 83 1013.4
20210916193518 85 147 3.0 10.0 0.00 2.47 0.99 82 1013.7
20210916193054 85 130 4.0 10.0 0.00 2.47 0.99 81 1013.8
20210916192538 86 125 4.0 9.0 0.00 2.47 0.99 82 1013.6
20210916192016 85 128 1.0 9.0 0.00 2.47 0.99 85 1013.4
20210916191518 85 168 3.0 9.0 0.00 2.47 0.99 83 1013.4
20210916191016 84 113 3.0 9.0 0.00 2.47 0.99 86 1013.4
20210916190517 83 163 3.0 9.0 0.00 2.47 0.99 87 1013.7
20210916190018 82 115 3.0 9.0 0.00 2.47 0.99 87 1013.8
20210916185515 82 145 3.0 10.0 0.00 3.07 0.99 87 1013.8
20210916185027 81 157 4.0 10.0 0.00 3.07 0.99 87 1013.9
20210916184517 81 114 3.0 7.0 0.00 3.07 0.99 94 1013.9
20210916184015 80 0 1.0 4.0 0.00 3.07 0.99 93 1013.9
20210916183517 79 182 1.0 4.0 0.00 3.07 0.99 93 1014.0
20210916183045 79 0 1.0 4.0 0.00 3.07 0.99 94 1014.0
20210916182514 79 138 1.0 7.0 0.00 3.07 0.99 94 1014.0
20210916182014 79 139 2.0 7.0 0.00 3.07 0.99 93 1014.0
20210916181516 79 130 2.0 8.0 0.00 3.07 0.99 93 1014.0
20210916181014 80 128 2.0 9.0 0.00 3.07 0.99 93 1014.1
20210916180514 80 109 3.0 10.0 0.00 3.07 0.99 91 1014.2
20210916180013 81 128 4.0 10.0 0.00 3.07 0.99 90 1014.3
20210916175514 81 173 2.0 12.0 0.00 3.24 0.99 92 1014.3
20210916175016 81 63 4.0 12.0 0.00 3.24 0.99 94 1014.5
20210916174516 80 134 2.0 9.0 0.00 3.24 0.99 94 1014.5
20210916174020 80 146 2.0 8.0 0.00 3.24 0.99 96 1014.4
20210916173515 79 42 0.0 6.0 0.00 3.24 0.99 96 1014.4
20210916173053 79 100 1.0 5.0 0.00 3.24 0.99 96 1014.5
20210916172515 79 0 1.0 5.0 0.00 3.24 0.99 96 1014.6
20210916172016 79 22 1.0 4.0 0.00 3.24 0.99 96 1014.6
20210916171534 79 80 0.0 3.0 0.00 3.24 0.99 96 1014.6
20210916171014 79 80 1.0 3.0 0.00 3.24 0.99 95 1014.6
20210916170515 79 0 0.0 6.0 0.00 3.24 0.99 97 1014.7
20210916170020 79 0 2.0 6.0 0.00 3.24 0.99 97 1014.6
20210916165519 79 88 1.0 4.0 0.00 3.27 0.99 98 1014.7
20210916165017 79 0 0.0 4.0 0.00 3.27 0.99 98 1014.7
20210916164527 78 87 0.0 4.0 0.06 3.27 0.99 98 1014.7
20210916164013 78 114 1.0 4.0 0.08 3.27 0.99 99 1014.6
20210916163513 78 0 1.0 4.0 0.08 3.27 0.99 99 1014.7